This demonstration page uses our WeatherBlox Daily Observations layout. Learn more.

Hourly Observations for August 24, 2015

Temp ( °F °C ) Dew Point ( °F °C ) Humidity (%) Winds ( mph kmh ) Pressure ( in mb ) Visibility ( mi km ) Precip ( " mm )
12:15 am 00:15 Clear 54 12 45 7 72 72 SSW 5 7 30.18 1022 10 16.09344 0 0
12:35 am 00:35 Clear 55 13 45 7 67 67 SSW 7 11 30.15 1021 10 16.09344 0 0
12:55 am 00:55 Clear 50 10 43 6 76 76 Calm 30.18 1022 10 16.09344 0 0
1:15 am 01:15 Clear 54 12 45 7 72 72 SSW 3 6 30.15 1021 10 16.09344 0 0
1:35 am 01:35 Clear 55 13 45 7 67 67 SW 3 6 30.15 1021 10 16.09344 0 0
1:55 am 01:55 Clear 52 11 43 6 72 72 SSW 5 7 30.15 1021 10 16.09344 0 0
2:15 am 02:15 Clear 54 12 45 7 72 72 SW 3 6 30.15 1021 10 16.09344 0 0
2:35 am 02:35 Clear 54 12 45 7 72 72 SW 3 6 30.15 1021 10 16.09344 0 0
2:55 am 02:55 Clear 55 13 43 6 63 63 SW 6 9 30.15 1021 10 16.09344 0 0
3:15 am 03:15 Clear 55 13 43 6 63 63 SW 3 6 30.15 1021 10 16.09344 0 0
3:35 am 03:35 Clear 54 12 43 6 67 67 Calm 30.15 1021 10 16.09344 0 0
3:55 am 03:55 Clear 54 12 43 6 67 67 Calm 30.15 1021 10 16.09344 0 0
4:15 am 04:15 Clear 52 11 43 6 72 72 Calm 30.15 1021 10 16.09344 0 0
4:35 am 04:35 Clear 52 11 43 6 72 72 W 3 6 30.15 1021 10 16.09344 0 0
4:55 am 04:55 Clear 50 10 43 6 76 76 W 3 6 30.18 1022 10 16.09344 0 0
5:15 am 05:15 Clear 54 12 43 6 67 67 Calm 30.15 1021 10 16.09344 0 0
5:35 am 05:35 Clear 54 12 43 6 67 67 Calm 30.15 1021 10 16.09344 0 0
5:55 am 05:55 Clear 52 11 43 6 72 72 Calm 30.15 1021 10 16.09344 0 0
6:15 am 06:15 Clear 54 12 43 6 67 67 Calm 30.15 1021 10 16.09344 0 0
6:35 am 06:35 Clear 52 11 43 6 72 72 SW 5 7 30.15 1021 10 16.09344 0 0
6:55 am 06:55 Clear 52 11 43 6 72 72 Calm 30.15 1021 10 16.09344 0 0
7:15 am 07:15 Sunny 50 10 41 5 71 71 WSW 3 6 30.18 1022 10 16.09344 0 0
7:35 am 07:35 Sunny 54 12 43 6 67 67 W 3 6 30.18 1022 10 16.09344 0 0
7:55 am 07:55 Sunny 54 12 45 7 72 72 WSW 5 7 30.18 1022 10 16.09344 0 0
8:15 am 08:15 Sunny 55 13 46 8 72 72 WSW 6 9 30.18 1022 10 16.09344 0 0
8:35 am 08:35 Sunny 59 15 46 8 63 63 WSW 3 6 30.15 1021 10 16.09344 0 0
8:55 am 08:55 Sunny 61 16 46 8 59 59 WSW 5 7 30.15 1021 10 16.09344 0 0
9:15 am 09:15 Sunny 63 17 46 8 56 56 WSW 5 7 30.15 1021 10 16.09344 0 0
9:35 am 09:35 Sunny 64 18 45 7 49 49 W 7 11 30.12 1020 10 16.09344 0 0
9:55 am 09:55 Sunny 66 19 45 7 46 46 W 5 7 30.12 1020 10 16.09344 0 0
10:15 am 10:15 Sunny 68 20 45 7 43 43 WSW 5 7 30.12 1020 10 16.09344 0 0
10:35 am 10:35 Sunny 70 21 45 7 40 40 SW 5 7 30.12 1020 10 16.09344 0 0
10:55 am 10:55 Sunny 72 22 45 7 38 38 SSW 5 7 30.09 1019 10 16.09344 0 0
11:15 am 11:15 Sunny 72 22 43 6 36 36 S 6 9 30.09 1019 10 16.09344 0 0
11:35 am 11:35 Sunny 73 23 43 6 33 33 SSW 7 11 30.09 1019 10 16.09344 0 0
11:55 am 11:55 Sunny 75 24 41 5 29 29 S 7 11 30.09 1019 10 16.09344 0 0
12:15 pm 12:15 Sunny 75 24 41 5 29 29 SW 6 9 30.09 1019 10 16.09344 0 0
12:35 pm 12:35 Sunny 75 24 41 5 29 29 SSW 8 13 30.09 1019 10 16.09344 0 0
12:55 pm 12:55 Sunny 77 25 41 5 28 28 SW 6 9 30.06 1018 10 16.09344 0 0
1:15 pm 13:15 Sunny 77 25 41 5 28 28 S 6 9 30.03 1017 10 16.09344 0 0
1:35 pm 13:35 Sunny 77 25 41 5 28 28 SSE 10 17 30.03 1017 10 16.09344 0 0
1:55 pm 13:55 Sunny 77 25 41 5 28 28 SSE 8 13 30.03 1017 10 16.09344 0 0
2:15 pm 14:15 Sunny 79 26 43 6 28 28 SE 8 13 30.03 1017 10 16.09344 0 0
2:35 pm 14:35 Sunny 77 25 43 6 30 30 Calm 30.03 1017 10 16.09344 0 0
2:55 pm 14:55 Sunny 79 26 41 5 26 26 SSE 8 13 30.03 1017 10 16.09344 0 0
3:15 pm 15:15 Sunny 79 26 43 6 28 28 SSE 9 15 30 1016 10 16.09344 0 0
3:35 pm 15:35 Sunny 79 26 43 6 28 28 S 5 7 30 1016 10 16.09344 0 0
3:55 pm 15:55 Sunny 81 27 43 6 26 26 SSE 7 11 30 1016 10 16.09344 0 0
4:15 pm 16:15 Sunny 81 27 43 6 26 26 SE 6 9 30 1016 10 16.09344 0 0
4:35 pm 16:35 Sunny 81 27 41 5 24 24 SSE 7 11 30 1016 10 16.09344 0 0
4:55 pm 16:55 Sunny 81 27 41 5 24 24 SSE 7 11 30 1016 10 16.09344 0 0
5:15 pm 17:15 Sunny 81 27 41 5 24 24 SSE 7 11 30 1016 10 16.09344 0 0
5:35 pm 17:35 Sunny 81 27 41 5 24 24 SE 7 11 30 1016 10 16.09344 0 0
5:55 pm 17:55 Sunny 81 27 41 5 24 24 SSE 6 9 30 1016 10 16.09344 0 0
6:15 pm 18:15 Sunny 81 27 45 7 28 28 SSE 6 9 30 1016 10 16.09344 0 0
6:35 pm 18:35 Sunny 81 27 46 8 30 30 SE 5 7 30 1016 10 16.09344 0 0
6:55 pm 18:55 Sunny 79 26 48 9 34 34 SE 5 7 30 1016 10 16.09344 0 0
7:15 pm 19:15 Sunny 77 25 52 11 42 42 SE 5 7 30 1016 10 16.09344 0 0
7:35 pm 19:35 Sunny 73 23 55 13 53 53 E 3 6 30.03 1017 10 16.09344 0 0
7:55 pm 19:55 Sunny 72 22 57 14 61 61 E 5 7 30.03 1017 10 16.09344 0 0
8:15 pm 20:15 Sunny 68 20 57 14 69 69 E 6 9 30.06 1018 10 16.09344 0 0
8:35 pm 20:35 Clear 64 18 55 13 73 73 ESE 7 11 30.06 1018 10 16.09344 0 0
8:55 pm 20:55 Clear 63 17 55 13 77 77 ESE 6 9 30.09 1019 10 16.09344 0 0
9:15 pm 21:15 Clear 61 16 55 13 83 83 ESE 5 7 30.09 1019 10 16.09344 0 0
9:35 pm 21:35 Clear 59 15 54 12 82 82 SE 5 7 30.09 1019 7 11.265408 0 0
9:55 pm 21:55 Clear 59 15 52 11 77 77 SE 7 11 30.09 1019 10 16.09344 0 0
10:15 pm 22:15 Clear 57 14 52 11 82 82 SE 6 9 30.09 1019 10 16.09344 0 0
10:35 pm 22:35 Clear 57 14 50 10 77 77 SE 6 9 30.09 1019 10 16.09344 0 0
10:55 pm 22:55 Clear 57 14 50 10 77 77 SSE 5 7 30.09 1019 10 16.09344 0 0
11:15 pm 23:15 Clear 57 14 50 10 77 77 SSE 5 7 30.09 1019 10 16.09344 0 0
11:35 pm 23:35 Clear 59 15 48 9 68 68 SSE 7 11 30.09 1019 10 16.09344 0 0
11:55 pm 23:55 Clear 59 15 48 9 68 68 SSE 7 11 30.09 1019 10 16.09344 0 0

Powered by AerisWeather